�������l�o���
Date,Time,MP-1(��Sv/h),MP-2(��Sv/h),MP-3(��Sv/h),MP-4(��Sv/h),MP-5(��Sv/h),MP-6(��Sv/h),MP-7(��Sv/h),MP-8(��Sv/h),����,����(m/s),���J
2016/12/09,00:00,1.104,1.856,1.220,2.103,1.447,0.574,1.045,0.966,�k�k��,3.5,��
2016/12/09,00:10,1.105,1.859,1.220,2.100,1.448,0.576,1.045,0.967,�k�k��,3.3,��
2016/12/09,00:20,1.106,1.857,1.218,2.105,1.445,0.574,1.045,0.966,�k�k��,3.5,��
2016/12/09,00:30,1.103,1.856,1.222,2.099,1.450,0.575,1.045,0.967,�k�k��,3.3,��
2016/12/09,00:40,1.104,1.858,1.218,2.103,1.449,0.576,1.043,0.967,�k��,3.4,��
2016/12/09,00:50,1.107,1.859,1.217,2.104,1.446,0.576,1.043,0.968,�k��,2.2,��
2016/12/09,01:00,1.106,1.855,1.219,2.102,1.451,0.574,1.042,0.966,�k��,1.7,��
2016/12/09,01:10,1.105,1.859,1.220,2.100,1.446,0.575,1.049,0.967,�k,0.9,��
2016/12/09,01:20,1.106,1.857,1.220,2.104,1.450,0.575,1.045,0.968,�k�k��,2.9,��
2016/12/09,01:30,1.106,1.858,1.220,2.102,1.449,0.573,1.045,0.967,�k,2.6,��
2016/12/09,01:40,1.105,1.855,1.219,2.103,1.448,0.575,1.045,0.969,�k,2.0,��
2016/12/09,01:50,1.105,1.856,1.221,2.103,1.447,0.576,1.045,0.968,�k�k��,1.7,��
2016/12/09,02:00,1.104,1.855,1.218,2.104,1.446,0.576,1.046,0.967,�k��,2.0,��
2016/12/09,02:10,1.105,1.857,1.220,2.103,1.449,0.576,1.045,0.968,�k��,1.5,��
2016/12/09,02:20,1.102,1.858,1.222,2.103,1.450,0.575,1.045,0.969,�k��,1.9,��
2016/12/09,02:30,1.107,1.857,1.219,2.105,1.446,0.576,1.047,0.967,�k��,2.0,��
2016/12/09,02:40,1.105,1.857,1.221,2.100,1.449,0.575,1.045,0.969,�k��,2.8,��
2016/12/09,02:50,1.104,1.857,1.224,2.104,1.449,0.577,1.046,0.967,�k��,3.0,��
2016/12/09,03:00,1.105,1.860,1.219,2.106,1.448,0.578,1.047,0.967,�k��,3.1,��
2016/12/09,03:10,1.106,1.858,1.223,2.102,1.449,0.577,1.045,0.968,�k��,3.3,��
2016/12/09,03:20,1.106,1.858,1.219,2.102,1.446,0.574,1.045,0.967,�k��,2.6,�L
2016/12/09,03:30,1.105,1.855,1.221,2.104,1.444,0.576,1.045,0.966,�k��,1.7,�L
2016/12/09,03:40,1.106,1.854,1.221,2.100,1.445,0.577,1.045,0.968,-,CALM,�L
2016/12/09,03:50,1.102,1.852,1.218,2.101,1.442,0.577,1.045,0.966,�k��,1.9,�L
2016/12/09,04:00,1.101,1.848,1.218,2.098,1.438,0.578,1.043,0.967,�k��,0.9,�L
2016/12/09,04:10,1.104,1.847,1.216,2.098,1.439,0.576,1.045,0.965,�k��,2.0,�L
2016/12/09,04:20,1.104,1.846,1.217,2.097,1.438,0.576,1.042,0.966,��,3.0,�L
2016/12/09,04:30,1.100,1.839,1.216,2.097,1.432,0.578,1.042,0.964,��쐼,2.3,�L
2016/12/09,04:40,1.098,1.832,1.210,2.091,1.425,0.575,1.040,0.964,��쓌,2.0,�L
2016/12/09,04:50,1.095,1.821,1.206,2.085,1.420,0.576,1.038,0.963,���쓌,0.6,�L
2016/12/09,05:00,1.096,1.822,1.205,2.080,1.423,0.577,1.039,0.962,-,CALM,��
2016/12/09,05:10,1.092,1.823,1.207,2.082,1.423,0.577,1.038,0.962,���k��,0.6,��
2016/12/09,05:20,1.093,1.824,1.205,2.079,1.420,0.574,1.036,0.964,-,CALM,��
2016/12/09,05:30,1.092,1.828,1.206,2.082,1.420,0.574,1.038,0.964,���쓌,0.8,��
2016/12/09,05:40,1.094,1.822,1.205,2.081,1.421,0.575,1.036,0.963,�k��,1.4,��
2016/12/09,05:50,1.093,1.823,1.205,2.079,1.419,0.573,1.035,0.962,�k��,2.0,��
2016/12/09,06:00,1.089,1.824,1.204,2.079,1.419,0.573,1.035,0.961,-,CALM,��
2016/12/09,06:10,1.092,1.824,1.203,2.080,1.419,0.573,1.037,0.962,�k��,0.8,��
2016/12/09,06:20,1.091,1.823,1.202,2.077,1.419,0.572,1.037,0.960,�k�k��,1.5,��
2016/12/09,06:30,1.090,1.817,1.202,2.079,1.419,0.573,1.036,0.961,�k��,2.5,��
2016/12/09,06:40,1.091,1.821,1.201,2.077,1.418,0.572,1.038,0.960,�k��,1.7,��
2016/12/09,06:50,1.090,1.825,1.200,2.077,1.420,0.572,1.037,0.962,�k��,1.5,��
2016/12/09,07:00,1.091,1.824,1.203,2.077,1.419,0.572,1.036,0.960,�쓌,1.5,��
2016/12/09,07:10,1.093,1.824,1.199,2.075,1.416,0.573,1.035,0.962,��쐼,0.6,��
2016/12/09,07:20,1.091,1.821,1.201,2.076,1.418,0.572,1.037,0.963,��,2.0,��
2016/12/09,07:30,1.090,1.819,1.199,2.081,1.417,0.571,1.035,0.962,��,1.5,��
2016/12/09,07:40,1.090,1.823,1.197,2.076,1.420,0.571,1.037,0.963,�쐼,1.1,��
2016/12/09,07:50,1.090,1.820,1.196,2.076,1.419,0.569,1.037,0.962,���쐼,0.6,��
2016/12/09,08:00,1.094,1.822,1.195,2.077,1.420,0.571,1.038,0.961,��,0.6,��
2016/12/09,08:10,1.090,1.818,1.196,2.077,1.417,0.572,1.037,0.962,�쐼,0.9,��
2016/12/09,08:20,1.093,1.823,1.194,2.081,1.416,0.573,1.037,0.961,-,CALM,��
2016/12/09,08:30,1.093,1.822,1.197,2.075,1.420,0.573,1.037,0.964,�k��,1.1,��
2016/12/09,08:40,1.093,1.821,1.191,2.076,1.419,0.574,1.038,0.961,�k��,2.9,��
2016/12/09,08:50,1.093,1.822,1.197,2.077,1.418,0.572,1.038,0.962,-,CALM,��
2016/12/09,09:00,1.092,1.823,1.196,2.080,1.419,0.573,1.038,0.963,�k�k��,0.8,��
2016/12/09,09:10,1.094,1.824,1.195,2.080,1.421,0.574,1.041,0.963,�k�k��,1.4,��
2016/12/09,09:20,1.095,1.827,1.197,2.078,1.421,0.573,1.040,0.963,-,CALM,��
2016/12/09,09:30,1.096,1.827,1.196,2.081,1.421,0.574,1.041,0.963,-,CALM,��
2016/12/09,09:40,1.097,1.827,1.197,2.082,1.424,0.574,1.042,0.964,��쓌,2.2,��
2016/12/09,09:50,1.093,1.830,1.195,2.080,1.423,0.573,1.040,0.965,��쐼,2.2,��
2016/12/09,10:00,1.090,1.829,1.195,2.084,1.421,0.575,1.041,0.964,��,1.2,��
2016/12/09,10:10,1.093,1.828,1.199,2.083,1.426,0.576,1.039,0.964,���쓌,1.9,��
2016/12/09,10:20,1.093,1.832,1.199,2.081,1.425,0.575,1.039,0.965,�쓌,2.0,��
2016/12/09,10:30,1.092,1.834,1.197,2.084,1.426,0.576,1.039,0.965,��,1.4,��
2016/12/09,10:40,1.093,1.834,1.198,2.083,1.426,0.575,1.040,0.965,�k��,2.3,��
2016/12/09,10:50,1.096,1.830,-,2.083,1.428,0.578,1.040,0.963,�k�k��,1.5,��
2016/12/09,11:00,1.098,1.829,-,2.083,1.427,0.575,1.042,0.966,���k��,1.2,��
2016/12/09,11:10,1.099,1.831,1.196,2.087,1.429,0.576,1.040,0.968,-,CALM,��
2016/12/09,11:20,1.100,1.833,1.202,2.087,1.428,0.576,1.041,0.963,-,CALM,��
2016/12/09,11:30,1.101,1.834,1.198,2.084,1.424,0.577,1.041,0.966,�k�k��,1.7,��
2016/12/09,11:40,1.101,1.833,1.204,2.088,1.430,0.574,1.039,0.966,�k��,0.9,��
2016/12/09,11:50,1.100,1.832,1.201,2.086,1.431,0.575,1.041,0.968,�k��,2.2,��
2016/12/09,12:00,1.100,1.832,1.201,2.087,1.430,0.577,1.039,0.968,�k��,2.0,��
2016/12/09,12:10,1.103,1.837,1.200,2.087,1.430,0.574,1.041,0.966,�k��,2.3,��
2016/12/09,12:20,1.103,1.834,-,2.086,1.430,0.574,1.043,0.969,-,CALM,��
2016/12/09,12:30,1.103,1.834,1.203,2.086,1.433,0.577,1.043,0.967,�k��,3.0,��
2016/12/09,12:40,1.105,1.838,1.207,2.086,1.433,0.576,1.043,0.969,��,3.3,��
2016/12/09,12:50,1.104,1.837,1.211,2.091,1.434,0.578,1.045,0.968,���쐼,6.9,��
2016/12/09,13:00,1.105,1.835,1.206,2.093,1.434,0.579,1.045,0.968,��,5.6,��
2016/12/09,13:10,1.102,1.837,1.209,2.089,1.432,0.577,1.043,0.967,��,5.9,��
2016/12/09,13:20,1.102,1.838,1.206,2.090,1.435,0.579,1.044,0.966,���k��,5.9,��
2016/12/09,13:30,1.102,1.834,1.210,2.092,1.435,0.579,1.044,0.965,���k��,6.0,��
2016/12/09,13:40,1.102,1.840,1.209,2.091,1.435,0.578,1.044,0.968,���k��,5.3,��
2016/12/09,13:50,1.102,1.839,1.206,2.093,1.437,0.579,1.046,0.964,���k��,4.4,��
2016/12/09,14:00,1.106,1.838,1.208,2.096,1.435,0.579,1.044,0.967,�쐼,2.9,��
2016/12/09,14:10,1.108,1.835,1.209,2.092,1.438,0.578,1.044,0.964,��쐼,0.8,��
2016/12/09,14:20,1.109,1.839,1.209,2.092,1.434,0.578,1.043,0.966,���k��,2.0,��
2016/12/09,14:30,1.110,1.839,1.211,-,1.437,0.579,1.044,0.968,��쐼,1.2,��
2016/12/09,14:40,1.110,1.843,1.209,-,1.437,0.581,1.043,0.970,��,1.2,��
2016/12/09,14:50,1.110,1.839,1.209,2.091,1.436,0.579,1.044,0.970,�쓌,1.5,��
2016/12/09,15:00,1.107,1.842,1.210,2.092,1.438,0.579,1.047,0.969,��쓌,1.7,��
2016/12/09,15:10,1.108,1.846,1.209,2.093,1.439,0.578,1.046,0.969,��,1.4,��
2016/12/09,15:20,1.111,1.844,1.216,2.091,1.436,0.578,1.045,0.969,�쓌,1.1,��
2016/12/09,15:30,1.109,1.845,1.214,2.095,1.437,0.578,1.046,0.970,�k��,1.2,��
2016/12/09,15:40,1.107,1.844,1.214,2.096,1.432,0.580,1.045,0.970,�k��,1.4,��
2016/12/09,15:50,1.107,1.843,1.216,-,1.436,0.578,1.045,0.970,�k,1.5,��
2016/12/09,16:00,1.107,1.844,1.215,2.092,1.434,0.580,1.046,0.967,�k,1.7,��
2016/12/09,16:10,1.108,1.842,1.215,2.091,1.436,0.578,1.043,0.967,�k�k��,1.1,��
2016/12/09,16:20,1.107,1.844,1.214,2.092,1.437,0.579,1.047,0.969,�k��,2.5,��
2016/12/09,16:30,1.107,1.842,1.214,2.092,1.439,0.578,1.045,0.968,���k��,2.5,��
2016/12/09,16:40,1.108,1.845,1.211,2.091,1.441,0.577,1.042,0.969,��,2.5,��
2016/12/09,16:50,1.109,1.842,1.213,2.091,1.439,0.578,1.044,0.968,��,3.7,��
2016/12/09,17:00,1.107,1.842,1.212,2.092,1.437,0.577,1.046,0.968,���k��,3.7,��
2016/12/09,17:10,1.108,1.845,1.211,2.096,1.439,0.578,1.044,0.969,�k��,3.4,��
2016/12/09,17:20,1.106,1.845,1.211,2.090,1.437,0.577,1.045,0.970,�k��,4.4,��
2016/12/09,17:30,1.108,1.843,1.213,2.094,1.439,0.577,1.044,0.968,���k��,5.9,��
2016/12/09,17:40,1.109,1.844,1.212,2.094,1.438,0.578,1.044,0.967,���k��,7.1,��
2016/12/09,17:50,1.110,1.843,1.211,2.094,1.438,0.578,1.045,0.969,���k��,8.1,��
2016/12/09,18:00,1.108,1.846,1.214,2.093,1.439,0.580,1.045,0.966,��,7.7,��
2016/12/09,18:10,1.108,1.844,1.211,2.095,1.438,0.577,1.044,0.966,��,7.5,��
2016/12/09,18:20,1.109,1.847,1.212,2.095,1.438,0.577,1.044,0.968,��,8.9,��
2016/12/09,18:30,1.109,1.843,1.214,2.098,1.440,0.577,1.043,0.968,��,9.9,��
2016/12/09,18:40,1.109,1.845,1.213,2.095,1.440,0.577,1.043,0.968,��,7.0,��
2016/12/09,18:50,1.106,1.843,1.214,2.094,1.439,0.578,1.044,0.970,���쐼,4.0,��
2016/12/09,19:00,1.109,1.844,1.213,2.096,1.441,0.576,1.042,0.968,���쐼,2.2,��
2016/12/09,19:10,1.107,1.843,1.213,2.095,1.439,0.577,1.044,0.968,���쐼,2.8,��
2016/12/09,19:20,1.108,1.845,1.211,2.095,1.436,0.577,1.042,0.967,���쐼,4.6,��
2016/12/09,19:30,1.108,1.844,1.211,2.094,1.437,0.577,1.042,0.969,���쐼,3.9,��
2016/12/09,19:40,1.107,1.844,1.212,2.093,1.440,0.577,1.045,0.968,��,3.8,��
2016/12/09,19:50,1.106,1.843,1.212,2.094,1.440,0.578,1.046,0.968,��,6.7,��
2016/12/09,20:00,1.106,1.844,1.212,2.095,1.440,0.577,1.043,0.966,��,6.5,��
2016/12/09,20:10,1.107,1.844,1.214,2.097,1.438,0.577,1.044,0.969,���k��,10.2,��
2016/12/09,20:20,1.108,1.842,1.211,2.096,1.440,0.577,1.043,0.968,���k��,9.2,��
2016/12/09,20:30,1.107,1.843,1.213,2.098,1.439,0.576,1.043,0.967,���k��,8.4,��
2016/12/09,20:40,1.107,1.844,1.210,2.093,1.440,0.577,1.046,0.967,�k��,8.3,��
2016/12/09,20:50,1.106,1.846,1.212,2.095,1.436,0.578,1.046,0.967,�k��,6.6,��
2016/12/09,21:00,1.105,1.842,1.212,2.094,1.438,0.576,1.044,0.969,�k��,5.3,��
2016/12/09,21:10,1.106,1.844,1.213,2.096,1.441,0.577,1.042,0.967,�k��,5.4,��
2016/12/09,21:20,1.105,1.845,1.213,2.095,1.438,0.576,1.044,0.967,�k��,6.0,��
2016/12/09,21:30,1.105,1.843,1.213,2.094,1.438,0.575,1.044,0.967,�k�k��,3.9,��
2016/12/09,21:40,1.107,1.840,1.211,2.095,1.440,0.577,1.045,0.968,�k,2.3,��
2016/12/09,21:50,1.104,1.846,1.214,2.097,1.437,0.577,1.044,0.968,�k�k��,4.6,��
2016/12/09,22:00,1.105,1.838,1.211,2.098,1.439,0.575,1.043,0.969,�k��,3.9,��
2016/12/09,22:10,1.105,1.843,1.211,2.095,1.439,0.576,1.043,0.968,�k��,5.1,��
2016/12/09,22:20,1.106,1.845,1.214,2.095,1.438,0.575,1.043,0.968,�k��,4.2,��
2016/12/09,22:30,1.106,1.842,1.213,2.096,1.440,0.577,1.044,0.965,��,4.8,��
2016/12/09,22:40,1.105,1.842,1.213,2.096,1.438,0.575,1.044,0.967,���k��,3.8,��
2016/12/09,22:50,1.107,1.843,1.212,2.098,1.438,0.576,1.044,0.968,���k��,6.6,��
2016/12/09,23:00,1.102,1.844,1.211,2.099,1.437,0.576,1.044,0.969,���k��,8.1,��
2016/12/09,23:10,1.104,1.846,1.212,2.096,1.441,0.574,1.047,0.966,�k��,7.3,��
2016/12/09,23:20,1.105,1.843,1.214,2.097,1.437,0.576,1.044,0.968,���k��,5.6,��
2016/12/09,23:30,1.104,1.844,1.212,2.095,1.438,0.576,1.042,0.965,���k��,5.5,��
2016/12/09,23:40,1.104,1.842,1.211,2.094,1.440,0.575,1.045,0.968,��,5.9,��
2016/12/09,23:50,1.103,1.843,1.212,2.094,1.439,0.575,1.043,0.966,���k��,6.7,��
